User: anonymous   Login
Location: Unspecified
(0.0000°N, 0.0000°E)
Time: 00:40:35
(UTC+00:00)
Language:

Picosat 3 - Orbit

View from above orbital plane
View from above orbital plane
View from above satellite
View from above satellite

Ground track
Ground track

The orbit data is extracted from the following two-line orbital elements,

1 26091U 00004J   17206.51660497 +.00000179 +00000-0 +63767-4 0  9996
2 26091 100.1855 304.5421 0028630 342.5979 017.4224 14.48644646919160
Epoch (UTC): 25 July 2017 12:23:54
Eccentricity: 0.0028630
inclination: 100.1855°
perigee height: 710 km
apogee height: 750 km
right ascension of ascending node: 304.5421°
argument of perigee: 342.5979°
revolutions per day: 14.48644646
mean anomaly at epoch: 17.4224°
orbit number at epoch: 91916

The dashed part of the orbit path shows where the satellite is in the earth's shadow,  

DLR